Location: Cahas Mountain Overlook
(37.0833°N, 80.1000°W)
Time: 22:30:27
(UTC-04:00)

Vanguard 2 - Visible Passes

Search period start: 17 August 2022 00:00
Search period end: 27 August 2022 00:00
Orbit: 552 x 2934 km, 32.9° (Epoch: 16 August)

Date Brightness Start Highest point End Pass type
(mag) Time Alt. Az. Time Alt. Az. Time Alt. Az.
17 Aug 8.1 05:31:22 19° SW 05:34:04 38° SSE 05:39:23 10° E visible
18 Aug 7.9 05:47:44 14° WSW 05:51:10 47° SSE 05:56:49 10° E visible
19 Aug 9.3 04:02:45 15° ESE 04:02:45 15° ESE 04:04:03 10° ESE visible
19 Aug 7.7 06:04:11 10° WSW 06:08:20 53° S 06:14:13 10° E visible
20 Aug 8.6 04:19:08 24° SE 04:19:08 24° SE 04:21:39 10° E visible
21 Aug 7.9 04:35:30 35° SE 04:35:30 35° SE 04:39:04 10° E visible
22 Aug 7.3 04:51:55 44° S 04:52:03 44° S 04:56:25 10° E visible
23 Aug 7.3 05:08:19 40° SW 05:09:13 49° S 05:13:44 10° ESE visible
24 Aug 7.3 05:24:44 29° WSW 05:26:24 48° S 05:30:59 10° ESE visible
25 Aug 7.5 05:41:12 20° WSW 05:43:35 44° S 05:48:12 10° ESE visible
26 Aug 9.5 03:56:18 13° ESE 03:56:18 13° ESE 03:56:51 10° ESE visible
26 Aug 7.7 05:57:40 14° WSW 06:00:47 37° S 06:05:18 10° ESE visible
